Regional Weather Roundup
Issued by NWS Cleveland, OH

Home | Current Version | Previous Version | Text Only | Print | Product List | Glossary Off
Versions: 1 2 3 4 5 6 7 8 9 10 11 12 13 14 15 16 17 18 19 20 21 22 23 24 25 26 27 28 29 30 31 32 33 34 35 36 37 38 39 40 41 42 43 44 45 46 47 48 49 50

000
ASUS41 KCLE 260000
RWRCLE
OHIO REGIONAL WEATHER ROUNDUP
NATIONAL WEATHER SERVICE WILMINGTON, OH
800 PM EDT THU MAY 25 2017

NOTE: "FAIR" INDICATES FEW OR NO CLOUDS BELOW 12,000 FEET WITH NO
SIGNIFICANT WEATHER AND/OR OBSTRUCTIONS TO VISIBILITY.

OHZ001>008-015>018-024>027-034-035-043-044-260100-
   NORTHWEST OHIO

CITY           SKY/WX    TMP DP  RH WIND       PRES   REMARKS
DEFIANCE       CLOUDY    62  56  80 NW7       29.59R
FINDLAY        CLOUDY    64  56  75 NW12      29.56R
TOLEDO EXPRESS CLOUDY    61  57  87 NW9       29.56R
TOLEDO EXEC    CLOUDY    63  58  83 NW13      29.56R
LIMA           CLOUDY    62  57  83 NW17      29.59R
$$

OHZ009>014-019>023-028>033-038-089-260100-
   NORTHEAST OHIO

CITY           SKY/WX    TMP DP  RH WIND       PRES   REMARKS
CLE-HOPKINS    CLOUDY    61  57  87 SW6       29.54R
CLE-LAKEFRONT  LGT RAIN  59  55  87 S6        29.51R
CUY CO. ARPT   CLOUDY    59  57  94 S6        29.52R
LORAIN-ELYRIA  RAIN      59  55  87 W7        29.53R FOG
ASHTABULA      CLOUDY    59  58  96 W7        29.52R
AKRON-CANTON   LGT RAIN  60  56  86 SW3       29.53R FOG
WOOSTER        NOT AVBL
MANSFIELD      LGT RAIN  60  59  96 W3        29.54R
YOUNGSTOWN     LGT RAIN  58  55  90 W7        29.52R
$$

OHZ042-051>053-060>062-070>072-077>081-260100-
  SOUTHWEST OHIO

CITY           SKY/WX    TMP DP  RH WIND       PRES   REMARKS
CINC-COVINGTON CLOUDY    62  56  80 W15       29.67R
CINC-LUNKEN    CLOUDY    64  58  80 W8        29.66R
HAMILTON       CLOUDY    63  57  81 W12       29.67R
DAYTON         CLOUDY    61  57  88 W15       29.63R
WRIGHT-PAT AFB LGT RAIN  61  61 100 W13       29.62R FOG
DAYTON GENERAL CLOUDY    62  55  77 W13G26    29.63R
WILMINGTON     LGT RAIN  60  60 100 W14G21    29.62R FOG
$$

OHZ036-037-039>041-045>050-054>059-063>069-073>076-082>088-260100-
  CENTRAL AND SOUTHEAST OHIO

CITY           SKY/WX    TMP DP  RH WIND       PRES   REMARKS
COLUMBUS       MOCLDY    63  62  97 W10       29.54R
OSU AIRPORT    CLOUDY    63  62  97 W7        29.55R
BOLTON FIELD   NOT AVBL
RICKENBACK AFB NOT AVBL
NEWARK         CLOUDY    63  59  87 W8        29.53R
MARION         CLOUDY    62  57  83 NW14      29.56R
LANCASTER      CLOUDY    65  59  81 W8        29.56R
ZANESVILLE     CLOUDY    62  58  86 SE3       29.53R
NEW PHILLY     LGT RAIN  60  59  96 CALM      29.54R
$$



USA.gov is the U.S. government's official web portal to all federal, state and local government web resources and services.